GW0809 Weather Reports


Display with metric or nautical units.
time (UTC)temp
F
wind
direction
speed
MPH
gust
MPH
rain 1hr
in
rain 24hr
in
rain mn
in
humidity
%
barometer
mb
20260506090557 50 253 0.0 0.0 0.00 0.00 0.00 93 1015.5
20260506090104 50 0 0.0 0.0 0.00 0.00 0.00 93 1015.5
20260506085555 51 0 0.0 0.0 0.00 0.00 0.00 93 1015.4
20260506085055 51 0 0.0 1.0 0.00 0.00 0.00 92 1015.4
20260506084631 51 0 0.0 1.0 0.00 0.00 0.00 92 1015.4
20260506084055 51 0 0.0 0.0 0.00 0.00 0.00 92 1015.4
20260506083555 51 0 0.0 1.0 0.00 0.00 0.00 92 1015.3
20260506083058 51 0 0.0 1.0 0.00 0.00 0.00 93 1015.3
20260506082557 51 253 0.0 1.0 0.00 0.00 0.00 92 1015.4
20260506082055 51 0 0.0 1.0 0.00 0.00 0.00 92 1015.2
20260506081558 51 0 0.0 1.0 0.00 0.00 0.00 92 1015.2
20260506081056 51 0 0.0 2.0 0.00 0.00 0.00 92 1015.2
20260506080559 51 0 0.0 2.0 0.00 0.00 0.00 92 1015.1
20260506073055 52 0 0.0 0.0 0.00 0.00 0.00 91 1014.9
20260506072555 52 0 0.0 0.0 0.00 0.00 0.00 91 1014.9
20260506072055 52 0 0.0 0.0 0.00 0.00 0.00 91 1014.9
20260506071558 52 0 0.0 0.0 0.00 0.00 0.00 91 1014.9
20260506071054 52 0 0.0 1.0 0.00 0.00 0.00 91 1014.7
20260506070555 52 0 0.0 1.0 0.00 0.00 0.00 90 1014.7
20260506062055 53 0 0.0 0.0 0.00 0.00 0.00 90 1014.3
20260506061556 53 0 0.0 0.0 0.00 0.00 0.00 90 1014.1
20260506061055 53 0 0.0 0.0 0.00 0.00 0.00 89 1014.2
20260506060556 54 0 0.0 0.0 0.00 0.00 0.00 89 1014.2
20260506051054 55 0 0.0 0.0 0.00 0.00 0.00 87 1014.1
20260506050554 55 0 0.0 0.0 0.00 0.00 0.00 86 1014.1
20260506045054 56 0 0.0 0.0 0.00 0.00 0.00 85 1014.0
20260506044555 56 0 0.0 0.0 0.00 0.00 0.00 85 1014.0
20260506044056 56 0 0.0 0.0 0.00 0.00 0.00 85 1013.9
20260506043556 56 0 0.0 0.0 0.00 0.00 0.00 85 1013.9
20260506043056 56 0 0.0 2.0 0.00 0.00 0.00 85 1013.8
20260506042556 56 0 0.0 2.0 0.00 0.00 0.00 85 1013.8
20260506042058 56 0 0.0 2.0 0.00 0.00 0.00 85 1013.7
20260506041605 57 281 0.0 1.0 0.00 0.00 0.00 84 1013.6
20260506041055 57 0 0.0 5.0 0.00 0.00 0.00 84 1013.6
20260506040555 57 0 0.0 5.0 0.00 0.00 0.00 84 1013.5
20260506040059 57 0 0.0 1.0 0.00 0.00 0.00 84 1013.4
20260506035555 57 0 0.0 2.0 0.00 0.00 0.00 83 1013.3
20260506035055 57 0 0.0 2.0 0.00 0.00 0.00 83 1013.2
20260506034558 57 0 0.0 3.0 0.00 0.00 0.00 82 1013.2
20260506034057 58 0 0.0 3.0 0.00 0.00 0.00 82 1013.1
20260506033557 58 19 0.0 2.0 0.00 0.00 0.00 82 1013.1
20260506033054 58 15 0.0 2.0 0.00 0.00 0.00 82 1013.2
20260506032555 59 0 0.0 2.0 0.00 0.00 0.00 81 1013.1
20260506032055 59 0 0.0 2.0 0.00 0.00 0.00 81 1013.1
20260506031555 60 0 0.0 2.0 0.00 0.00 0.00 80 1013.0
20260506031054 60 336 0.0 2.0 0.00 0.00 0.00 79 1013.0
20260506030554 60 0 0.0 2.0 0.00 0.00 0.00 78 1012.8
20260506030055 61 0 0.0 2.0 0.00 0.00 0.00 77 1012.8
20260506025555 61 0 0.0 3.0 0.00 0.00 0.00 77 1012.8
20260506025058 62 67 0.0 3.0 0.00 0.00 0.00 77 1012.8
20260506024556 62 0 0.0 3.0 0.00 0.00 0.00 76 1012.8
20260506024054 62 51 0.0 2.0 0.00 0.00 0.00 75 1012.8
20260506023556 63 0 0.0 2.0 0.00 0.00 0.00 76 1012.9
20260506023107 63 0 0.0 2.0 0.00 0.00 0.00 74 1013.0
20260506022555 63 0 0.0 3.0 0.00 0.00 0.00 75 1012.9
20260506022055 63 5 1.0 3.0 0.00 0.00 0.00 75 1013.0
20260506021612 63 279 1.0 3.0 0.00 0.00 0.00 72 1013.0
20260506021054 64 20 0.0 3.0 0.00 0.00 0.00 73 1013.0
20260506020555 64 311 0.0 4.0 0.00 0.00 0.00 72 1013.0
20260506020053 64 0 1.0 4.0 0.00 0.00 0.00 72 1013.0
20260506015555 64 0 0.0 3.0 0.00 0.00 0.00 71 1012.9
20260506015057 64 0 0.0 7.0 0.00 0.00 0.00 71 1013.0
20260506014557 65 45 0.0 7.0 0.00 0.00 0.00 71 1013.0
20260506014057 65 5 0.0 4.0 0.00 0.00 0.00 70 1013.1
20260506013554 65 0 0.0 3.0 0.00 0.00 0.00 71 1013.1
20260506013107 65 42 0.0 2.0 0.00 0.00 0.00 73 1013.0
20260506012554 65 0 0.0 3.0 0.00 0.00 0.00 71 1013.0
20260506012054 65 0 0.0 3.0 0.00 0.00 0.00 71 1013.0
20260506011616 66 0 0.0 4.0 0.00 0.00 0.00 71 1013.0
20260506011055 66 351 0.0 4.0 0.00 0.00 0.00 71 1013.0
20260506010555 66 29 0.0 3.0 0.00 0.00 0.00 69 1013.0
20260506010100 67 123 1.0 3.0 0.00 0.00 0.00 69 1013.0
20260506005558 67 144 1.0 4.0 0.00 0.00 0.00 67 1012.9
20260506005054 68 157 1.0 4.0 0.00 0.00 0.00 67 1012.9
20260506004556 68 0 0.0 3.0 0.00 0.00 0.00 66 1012.9
20260506004054 69 170 0.0 3.0 0.00 0.00 0.00 66 1013.0
20260506003555 69 47 0.0 3.0 0.00 0.00 0.00 67 1012.9
20260506003058 69 319 0.0 4.0 0.00 0.00 0.00 66 1013.0
20260506002554 69 309 0.0 4.0 0.00 0.00 0.00 65 1013.0
20260506002055 69 9 1.0 4.0 0.00 0.00 0.00 66 1013.1
20260506001557 69 69 0.0 4.0 0.00 0.00 0.00 66 1013.2
20260506001054 69 0 1.0 3.0 0.00 0.00 0.00 66 1013.3
20260506000554 69 86 1.0 5.0 0.00 0.00 0.00 65 1013.3
20260506000057 69 163 2.0 5.0 0.00 0.00 0.00 64 1013.2
20260505235556 69 171 1.0 5.0 0.00 0.00 0.00 65 1013.2
20260505235056 69 269 1.0 5.0 0.00 0.00 0.00 66 1013.2
20260505234558 69 0 1.0 5.0 0.00 0.00 0.00 65 1013.3
20260505234055 69 257 1.0 5.0 0.00 0.00 0.00 66 1013.4
20260505233554 69 92 1.0 6.0 0.00 0.00 0.00 65 1013.5
20260505233105 68 5 1.0 6.0 0.00 0.00 0.00 67 1013.5
20260505232554 69 190 1.0 6.0 0.00 0.00 0.00 67 1013.5
20260505232056 68 170 1.0 6.0 0.00 0.00 0.00 67 1013.6
20260505231608 68 90 1.0 7.0 0.00 0.00 0.00 66 1013.7
20260505231054 68 163 1.0 7.0 0.00 0.00 0.00 66 1013.7
20260505230554 69 123 1.0 5.0 0.00 0.00 0.00 65 1013.7
20260505230057 69 144 1.0 5.0 0.00 0.00 0.00 66 1013.8
20260505225554 69 54 1.0 4.0 0.00 0.00 0.00 66 1013.8
20260505225054 69 5 1.0 5.0 0.00 0.00 0.00 65 1013.9
20260505224602 69 348 1.0 5.0 0.00 0.00 0.00 67 1013.8
20260505224055 69 205 1.0 5.0 0.00 0.00 0.00 66 1013.9
20260505223554 69 198 1.0 7.0 0.00 0.00 0.00 66 1013.9
20260505223058 69 0 2.0 7.0 0.00 0.00 0.00 67 1013.9
20260505222559 69 19 1.0 7.0 0.00 0.00 0.00 67 1013.9
20260505222056 69 194 2.0 8.0 0.00 0.00 0.00 66 1013.9
20260505221602 69 228 1.0 8.0 0.00 0.00 0.00 66 1013.9
20260505221054 69 202 1.0 8.0 0.00 0.00 0.00 65 1014.0
20260505220554 69 352 1.0 4.0 0.00 0.00 0.00 67 1014.0
20260505220100 68 0 1.0 5.0 0.00 0.00 0.00 68 1014.0
20260505215554 68 175 1.0 7.0 0.00 0.00 0.00 67 1014.0
20260505215054 68 165 1.0 7.0 0.00 0.00 0.00 67 1014.0
20260505214559 68 63 1.0 5.0 0.00 0.00 0.00 67 1014.0
20260505214053 68 348 1.0 5.0 0.00 0.00 0.00 67 1014.1
20260505213554 68 5 1.0 5.0 0.00 0.00 0.00 69 1014.1
20260505213055 68 106 1.0 6.0 0.00 0.00 0.00 67 1014.2
20260505212555 68 288 2.0 6.0 0.00 0.00 0.00 68 1014.3
20260505212054 68 272 1.0 6.0 0.00 0.00 0.00 68 1014.3
20260505211553 68 198 2.0 5.0 0.00 0.00 0.00 66 1014.3
20260505211056 68 35 1.0 6.0 0.00 0.00 0.00 67 1014.4
20260505210554 68 127 1.0 6.0 0.00 0.00 0.00 68 1014.3
20260505210055 67 0 2.0 6.0 0.00 0.00 0.00 68 1014.3
20260505205555 67 103 2.0 6.0 0.00 0.00 0.00 68 1014.3
20260505205055 67 213 1.0 6.0 0.00 0.00 0.00 70 1014.3
20260505204556 67 199 2.0 6.0 0.00 0.00 0.00 68 1014.4
20260505204054 67 168 1.0 8.0 0.00 0.00 0.00 70 1014.4
20260505203554 67 0 1.0 8.0 0.00 0.00 0.00 69 1014.4
20260505203119 67 310 1.0 8.0 0.00 0.00 0.00 68 1014.4
20260505202557 66 194 1.0 6.0 0.00 0.00 0.00 69 1014.5
20260505202056 66 226 2.0 6.0 0.00 0.00 0.00 70 1014.5
20260505201601 66 180 2.0 5.0 0.00 0.00 0.00 70 1014.6
20260505201054 66 136 1.0 6.0 0.00 0.00 0.00 70 1014.5
20260505200554 66 171 2.0 7.0 0.00 0.00 0.00 69 1014.5
20260505200055 66 107 1.0 7.0 0.00 0.00 0.00 70 1014.5
20260505195558 67 78 2.0 8.0 0.00 0.00 0.00 69 1014.6
20260505195056 67 149 2.0 8.0 0.00 0.00 0.00 69 1014.6
20260505194553 67 14 1.0 8.0 0.00 0.00 0.00 69 1014.5
20260505194056 67 311 1.0 7.0 0.00 0.00 0.00 71 1014.6
20260505193555 67 180 1.0 7.0 0.00 0.00 0.00 70 1014.5
20260505193100 66 142 2.0 7.0 0.00 0.00 0.00 70 1014.5
20260505192557 66 90 2.0 6.0 0.00 0.00 0.00 70 1014.6
20260505192054 66 259 1.0 5.0 0.00 0.00 0.00 72 1014.5
20260505191610 66 0 2.0 6.0 0.00 0.00 0.00 69 1014.5
20260505191055 66 142 1.0 6.0 0.00 0.00 0.00 71 1014.5
20260505190554 66 39 2.0 5.0 0.00 0.00 0.00 71 1014.5
20260505190054 66 109 1.0 5.0 0.00 0.00 0.00 70 1014.5
20260505185554 66 221 1.0 5.0 0.00 0.00 0.00 71 1014.5
20260505185054 66 159 1.0 6.0 0.00 0.00 0.00 71 1014.5
20260505184556 66 76 2.0 6.0 0.00 0.00 0.00 71 1014.5
20260505184055 66 179 2.0 5.0 0.00 0.00 0.00 69 1014.5
20260505183555 67 146 1.0 5.0 0.00 0.00 0.00 70 1014.5
20260505183056 66 0 1.0 6.0 0.00 0.00 0.00 71 1014.5
20260505182554 66 288 1.0 6.0 0.00 0.00 0.00 72 1014.5
20260505182054 66 151 1.0 6.0 0.00 0.00 0.00 71 1014.5
20260505181556 65 205 1.0 6.0 0.00 0.00 0.00 72 1014.4
20260505181054 65 190 1.0 6.0 0.00 0.00 0.00 71 1014.4
20260505180554 65 217 2.0 6.0 0.00 0.00 0.00 72 1014.4
20260505175554 65 202 1.0 7.0 0.00 0.00 0.00 72 1014.3
20260505175057 65 126 1.0 7.0 0.00 0.00 0.00 73 1014.3
20260505174559 65 223 1.0 6.0 0.00 0.00 0.00 72 1014.3
20260505174054 65 194 1.0 5.0 0.00 0.00 0.00 72 1014.4
20260505173554 65 123 1.0 6.0 0.00 0.00 0.00 71 1014.3
20260505173058 65 230 1.0 6.0 0.00 0.00 0.00 72 1014.3
20260505172554 65 90 0.0 6.0 0.00 0.00 0.00 72 1014.4
20260505172054 65 235 1.0 6.0 0.00 0.00 0.00 72 1014.4
20260505171556 65 84 1.0 5.0 0.00 0.00 0.00 72 1014.3
20260505171055 64 198 1.0 6.0 0.00 0.00 0.00 72 1014.3
20260505170554 64 197 1.0 6.0 0.00 0.00 0.00 72 1014.3
20260505170111 64 171 1.0 5.0 0.00 0.00 0.00 72 1014.3
20260505165554 64 259 2.0 5.0 0.00 0.00 0.00 71 1014.3
20260505165057 64 143 1.0 5.0 0.00 0.00 0.00 71 1014.3
20260505164558 64 202 1.0 5.0 0.00 0.00 0.00 73 1014.3
20260505164054 64 36 2.0 5.0 0.00 0.00 0.00 73 1014.3
20260505163553 64 0 1.0 4.0 0.00 0.00 0.00 73 1014.3
20260505163056 63 101 1.0 4.0 0.00 0.00 0.00 74 1014.3
20260505162553 63 0 1.0 5.0 0.00 0.00 0.00 74 1014.3
20260505162057 63 132 1.0 5.0 0.00 0.00 0.00 73 1014.3
20260505161617 63 182 1.0 4.0 0.00 0.00 0.00 74 1014.4
20260505161054 63 213 0.0 3.0 0.00 0.00 0.00 73 1014.3
20260505160555 63 30 1.0 3.0 0.00 0.00 0.00 73 1014.4
20260505160106 62 0 0.0 3.0 0.00 0.00 0.00 74 1014.2
20260505153108 61 0 1.0 3.0 0.00 0.00 0.00 75 1014.3
20260505152554 61 0 0.0 3.0 0.00 0.00 0.00 76 1014.3
20260505152054 60 102 0.0 3.0 0.00 0.00 0.00 78 1014.2
20260505151604 60 115 0.0 3.0 0.00 0.00 0.00 78 1014.2
20260505151054 59 0 0.0 2.0 0.00 0.00 0.00 79 1014.2
20260505150553 59 184 0.0 2.0 0.00 0.00 0.00 80 1014.1
20260505140553 51 0 0.0 1.0 0.00 0.00 0.00 93 1013.6
20260505140105 51 0 0.0 2.0 0.00 0.00 0.00 93 1013.4
20260505124557 49 0 0.0 0.0 0.00 0.00 0.00 92 1012.7
20260505124055 49 0 0.0 0.0 0.00 0.00 0.00 92 1012.6
20260505123554 49 0 0.0 0.0 0.00 0.00 0.00 91 1012.5
20260505123057 49 0 0.0 0.0 0.00 0.00 0.00 91 1012.4
20260505122556 49 0 0.0 0.0 0.00 0.00 0.00 92 1012.3
20260505122054 49 0 0.0 0.0 0.00 0.00 0.00 92 1012.2
20260505121625 49 0 0.0 0.0 0.00 0.00 0.00 91 1012.2
20260505121054 49 0 0.0 0.0 0.00 0.00 0.00 91 1012.1
20260505120553 49 0 0.0 0.0 0.00 0.00 0.00 91 1012.0
20260505120139 49 0 0.0 0.0 0.00 0.00 0.00 90 1011.9
20260505115557 49 0 0.0 0.0 0.00 0.00 0.00 90 1011.9
20260505115058 50 0 0.0 0.0 0.00 0.00 0.00 90 1011.8
20260505114555 50 0 0.0 0.0 0.00 0.00 0.00 91 1011.8
20260505114056 50 0 0.0 0.0 0.00 0.00 0.00 91 1011.8
20260505113556 50 0 0.0 0.0 0.00 0.00 0.00 90 1011.8
20260505113055 50 0 0.0 0.0 0.00 0.00 0.00 90 1011.7
20260505112556 50 0 0.0 0.0 0.00 0.00 0.00 90 1011.7
20260505112056 50 0 0.0 0.0 0.00 0.00 0.00 90 1011.6
20260505111556 50 0 0.0 0.0 0.00 0.00 0.00 90 1011.6
20260505111056 50 0 0.0 0.0 0.00 0.00 0.00 90 1011.6
20260505110556 50 0 0.0 0.0 0.00 0.00 0.00 90 1011.5
20260505102056 51 0 0.0 2.0 0.00 0.00 0.00 90 1011.1
20260505101559 51 0 0.0 2.0 0.00 0.00 0.00 90 1011.1
20260505101056 51 311 0.0 0.0 0.00 0.00 0.00 90 1011.0
20260505100556 51 0 0.0 1.0 0.00 0.00 0.00 89 1011.0
20260505100100 52 0 0.0 1.0 0.00 0.00 0.00 90 1010.9
20260505095556 52 0 0.0 1.0 0.00 0.00 0.00 90 1011.0
20260505095056 52 0 0.0 0.0 0.00 0.00 0.00 89 1010.9
20260505094557 52 0 0.0 0.0 0.00 0.00 0.00 89 1011.0
20260505094055 52 0 0.0 0.0 0.00 0.00 0.00 90 1010.9
20260505093555 52 0 0.0 0.0 0.00 0.00 0.00 89 1010.9
20260505093056 52 0 0.0 0.0 0.00 0.00 0.00 89 1010.9
20260505092601 52 0 0.0 1.0 0.00 0.00 0.00 89 1010.8
20260505092056 52 0 0.0 1.0 0.00 0.00 0.00 89 1010.9
20260505091557 52 0 0.0 1.0 0.00 0.00 0.00 89 1010.8
20260505091059 52 0 0.0 1.0 0.00 0.00 0.00 89 1010.7